Location: Boise
(43.6140°N, 116.2030°W)
Time: 11:30:20
(UTC-06:00)

ISS - Visible Passes

Search period start: 22 September 2018 00:00
Search period end: 02 October 2018 00:00
Orbit: 403 x 408 km, 51.6° (Epoch: 22 September)

Date Brightness Start Highest point End Pass type
(mag) Time Alt. Az. Time Alt. Az. Time Alt. Az.
22 Sep -2.8 21:42:45 10° WSW 21:45:11 45° W 21:45:11 45° W visible
23 Sep -3.9 20:50:54 10° SW 20:54:10 65° SE 20:55:52 25° ENE visible
23 Sep -0.5 22:27:59 10° W 22:28:34 14° WNW 22:28:34 14° WNW visible
24 Sep -2.6 21:35:45 10° W 21:38:52 38° NNW 21:39:05 37° NNW visible
25 Sep -3.3 20:43:38 10° WSW 20:46:54 58° NNW 20:49:26 15° NE visible
25 Sep -0.6 22:21:15 10° WNW 22:22:08 15° NW 22:22:08 15° NW visible
26 Sep -2.0 21:28:57 10° WNW 21:31:46 25° NNW 21:32:22 24° N visible
27 Sep -2.3 20:36:40 10° W 20:39:41 33° NNW 20:42:31 11° NE visible
27 Sep -0.7 22:14:22 10° NW 22:15:12 14° NW 22:15:12 14° NW visible
28 Sep -1.7 21:22:08 10° WNW 21:24:42 21° N 21:25:17 20° N visible
29 Sep -1.8 20:29:48 10° WNW 20:32:32 23° NNW 20:35:17 10° NE visible
29 Sep -0.7 22:07:12 10° NW 22:07:59 14° NW 22:07:59 14° NW visible
30 Sep -1.8 21:15:07 10° NW 21:17:37 20° N 21:17:59 19° N visible
01 Oct -1.7 20:22:53 10° NW 20:25:24 20° N 20:27:57 10° NE visible
01 Oct -0.8 21:59:47 10° NW 22:00:37 15° NW 22:00:37 15° NW visible
